Location: Newark
(7.0858°N, 171.3717°E)
Time: 15:49:25
(UTC+00:00)

Courier 1B Rocket - Pass Details

Date: 29 November 2020
Orbit: 920 x 1202 km, 28.2° (Epoch: 20 January)

Event Time Altitude Azimuth Distance (km) Brightness Sun altitude
Rises 23:48:05 0° 306° (NW) 3,940 7.9 60.0°
Reaches altitude 10° 23:51:02 10° 312° (NW) 2,939 7.4 60.2°
Maximum altitude 23:57:58 51° 26° (NNE) 1,283 6.1 60.6°
Drops below altitude 10° 00:04:25 10° 101° (E) 2,739 7.6 60.9°
Sets 00:07:05 0° 106° (ESE) 3,651 8.2 61.0°
